HAZ1052 ZSPD-ZSHC

Flight info

Callsign HAZ1052
Flight time 0h 40m
Altitude 7900
Route AND81D AND B221 SUPAR W505 DSH
Aircraft A359/H-SDE2E3GHIJ3J4J5LM1ORWXY/LB1D1

Departure

Time 2026-05-04 18:10
Airport Shanghai Pudong International Airport (ZSPD)

Arrival

Time 2026-05-04 18:50
Airport Hangzhou Xiaoshan International Airport (ZSHC)
Time Latitude Longitude Altitude Speed Heading
2026-05-04 18:02 31.13812 121.80028 29 ft 10 kts 341°
2026-05-04 18:02 31.13886 121.79999 29 ft 13 kts 341°
2026-05-04 18:03 31.13978 121.79964 29 ft 15 kts 342°
2026-05-04 18:03 31.14066 121.79924 29 ft 13 kts 327°
2026-05-04 18:03 31.14082 121.79866 29 ft 6 kts 259°
2026-05-04 18:03 31.14068 121.79804 29 ft 9 kts 255°
2026-05-04 18:04 31.14049 121.79721 29 ft 12 kts 258°
2026-05-04 18:04 31.14039 121.79630 29 ft 7 kts 289°
2026-05-04 18:04 31.14154 121.79562 29 ft 12 kts 342°
2026-05-04 18:05 31.14243 121.79529 29 ft 15 kts 342°
2026-05-04 18:05 31.14346 121.79490 29 ft 17 kts 342°
2026-05-04 18:05 31.14466 121.79444 29 ft 19 kts 342°
2026-05-04 18:05 31.14598 121.79395 29 ft 21 kts 342°
2026-05-04 18:06 31.14898 121.79282 30 ft 24 kts 341°
2026-05-04 18:06 31.15064 121.79219 29 ft 26 kts 342°
2026-05-04 18:06 31.15243 121.79151 29 ft 28 kts 342°
2026-05-04 18:07 31.15432 121.79080 29 ft 29 kts 341°
2026-05-04 18:07 31.15627 121.79006 29 ft 29 kts 342°
2026-05-04 18:07 31.15783 121.78947 29 ft 18 kts 342°
2026-05-04 18:07 31.15887 121.78908 29 ft 16 kts 342°
2026-05-04 18:08 31.16000 121.78865 29 ft 18 kts 342°
2026-05-04 18:08 31.16091 121.78831 29 ft 15 kts 342°
2026-05-04 18:08 31.16148 121.78765 29 ft 11 kts 269°
2026-05-04 18:08 31.16126 121.78674 29 ft 13 kts 252°
2026-05-04 18:09 31.16072 121.78610 28 ft 5 kts 148°
2026-05-04 18:09 31.15910 121.78680 28 ft 42 kts 162°
2026-05-04 18:10 31.15382 121.78878 27 ft 113 kts 162°
2026-05-04 18:10 31.14455 121.79228 53 ft 168 kts 162°
2026-05-04 18:10 31.13296 121.79664 628 ft 179 kts 162°
2026-05-04 18:10 31.12088 121.80125 1450 ft 180 kts 164°
2026-05-04 18:11 31.10875 121.80564 1859 ft 195 kts 165°
2026-05-04 18:11 31.09597 121.80981 2113 ft 214 kts 166°
2026-05-04 18:11 31.08601 121.81303 2306 ft 228 kts 166°
2026-05-04 18:11 31.07006 121.81826 2676 ft 244 kts 165°
2026-05-04 18:12 31.05367 121.82373 3255 ft 250 kts 165°
2026-05-04 18:12 31.03677 121.82941 3849 ft 256 kts 165°
2026-05-04 18:12 31.01940 121.83527 4410 ft 263 kts 166°
2026-05-04 18:12 31.00163 121.84130 4965 ft 269 kts 165°
2026-05-04 18:13 30.98383 121.84869 5543 ft 274 kts 159°
2026-05-04 18:13 30.96590 121.85708 6133 ft 279 kts 159°
2026-05-04 18:13 30.92950 121.87427 7308 ft 287 kts 159°
2026-05-04 18:14 30.91069 121.88218 7744 ft 288 kts 163°
2026-05-04 18:14 30.89148 121.88896 7889 ft 290 kts 164°
2026-05-04 18:14 30.87211 121.89573 7893 ft 290 kts 163°
2026-05-04 18:15 30.83364 121.90956 7917 ft 290 kts 163°
2026-05-04 18:15 30.79418 121.91657 7905 ft 287 kts 192°
2026-05-04 18:15 30.77570 121.90852 7896 ft 284 kts 210°
2026-05-04 18:16 30.75839 121.89726 7910 ft 285 kts 211°
2026-05-04 18:16 30.74113 121.88590 7900 ft 285 kts 211°
2026-05-04 18:16 30.72387 121.87465 7897 ft 285 kts 211°
2026-05-04 18:17 30.68933 121.85226 7882 ft 286 kts 210°
2026-05-04 18:17 30.67190 121.84107 7902 ft 287 kts 210°
2026-05-04 18:17 30.63706 121.81859 7890 ft 286 kts 211°
2026-05-04 18:18 30.61974 121.80729 7902 ft 286 kts 211°
2026-05-04 18:18 30.60238 121.79603 7893 ft 286 kts 210°
2026-05-04 18:18 30.58507 121.78472 7892 ft 285 kts 211°
2026-05-04 18:18 30.56933 121.77090 7905 ft 283 kts 228°
2026-05-04 18:19 30.54696 121.73389 7885 ft 281 kts 239°
2026-05-04 18:19 30.53636 121.71481 7885 ft 281 kts 239°
2026-05-04 18:19 30.52576 121.69581 7907 ft 281 kts 238°
2026-05-04 18:20 30.51505 121.67679 7887 ft 281 kts 239°
2026-05-04 18:20 30.50434 121.65776 7897 ft 281 kts 238°
2026-05-04 18:20 30.49363 121.63877 7886 ft 281 kts 238°
2026-05-04 18:20 30.48287 121.61980 7884 ft 281 kts 239°
2026-05-04 18:21 30.47218 121.60084 7886 ft 281 kts 239°
2026-05-04 18:21 30.46147 121.58191 7886 ft 282 kts 239°
2026-05-04 18:21 30.45074 121.56296 7907 ft 281 kts 238°
2026-05-04 18:21 30.44011 121.54422 7887 ft 281 kts 239°
2026-05-04 18:22 30.42925 121.52504 7885 ft 281 kts 239°
2026-05-04 18:22 30.41854 121.50610 7902 ft 281 kts 238°
2026-05-04 18:22 30.40779 121.48716 7882 ft 281 kts 238°
2026-05-04 18:22 30.39718 121.46850 7884 ft 281 kts 238°
2026-05-04 18:23 30.38646 121.44961 7899 ft 281 kts 238°
2026-05-04 18:23 30.37571 121.43064 7881 ft 281 kts 238°
2026-05-04 18:23 30.36496 121.41175 7881 ft 282 kts 237°
2026-05-04 18:23 30.35418 121.39280 7895 ft 282 kts 238°
2026-05-04 18:24 30.34340 121.37386 7876 ft 282 kts 238°
2026-05-04 18:24 30.33262 121.35494 7903 ft 282 kts 238°
2026-05-04 18:24 30.32184 121.33599 7883 ft 282 kts 238°
2026-05-04 18:24 30.31102 121.31702 7883 ft 282 kts 238°
2026-05-04 18:25 30.30022 121.29806 7896 ft 282 kts 238°
2026-05-04 18:25 30.28944 121.27916 7882 ft 282 kts 237°
2026-05-04 18:25 30.27862 121.26021 7884 ft 282 kts 238°
2026-05-04 18:25 30.26783 121.24129 7895 ft 282 kts 237°
2026-05-04 18:26 30.25703 121.22237 7882 ft 282 kts 237°
2026-05-04 18:26 30.24595 121.20359 7903 ft 282 kts 235°
2026-05-04 18:26 30.23434 121.18527 7883 ft 282 kts 234°
2026-05-04 18:26 30.22251 121.16720 7881 ft 283 kts 233°
2026-05-04 18:27 30.21059 121.14913 7900 ft 282 kts 233°
2026-05-04 18:27 30.19871 121.13104 7882 ft 282 kts 233°
2026-05-04 18:27 30.18690 121.11291 7883 ft 283 kts 233°
2026-05-04 18:27 30.17511 121.09468 7902 ft 283 kts 233°
2026-05-04 18:28 30.16335 121.07644 7882 ft 283 kts 234°
2026-05-04 18:28 30.15169 121.05831 7902 ft 283 kts 234°
2026-05-04 18:28 30.13993 121.04003 7884 ft 283 kts 234°
2026-05-04 18:28 30.12817 121.02174 7904 ft 283 kts 234°
2026-05-04 18:29 30.11641 121.00349 7918 ft 283 kts 234°
2026-05-04 18:29 30.10468 120.98528 7924 ft 283 kts 234°
2026-05-04 18:29 30.09292 120.96704 7921 ft 283 kts 234°
2026-05-04 18:29 30.08113 120.94879 7918 ft 283 kts 233°
2026-05-04 18:30 30.05770 120.91221 7925 ft 283 kts 234°
2026-05-04 18:30 30.04645 120.89391 7921 ft 283 kts 239°
2026-05-04 18:30 30.03959 120.87256 7914 ft 282 kts 263°
2026-05-04 18:31 30.04158 120.85035 7928 ft 280 kts 290°
2026-05-04 18:31 30.05179 120.83148 7805 ft 280 kts 315°
2026-05-04 18:31 30.06791 120.81990 7574 ft 278 kts 342°
2026-05-04 18:31 30.08701 120.81755 7325 ft 278 kts
2026-05-04 18:32 30.10560 120.82347 7071 ft 278 kts 17°
2026-05-04 18:32 30.12467 120.82608 6834 ft 278 kts 353°
2026-05-04 18:32 30.14275 120.81892 6601 ft 276 kts 332°
2026-05-04 18:32 30.15977 120.80862 6362 ft 276 kts 332°
2026-05-04 18:33 30.17670 120.79844 6107 ft 276 kts 332°
2026-05-04 18:33 30.19382 120.78827 5864 ft 276 kts 333°
2026-05-04 18:33 30.21090 120.77819 5600 ft 276 kts 333°
2026-05-04 18:33 30.22800 120.76820 5350 ft 275 kts 333°
2026-05-04 18:34 30.24512 120.75825 5103 ft 275 kts 333°
2026-05-04 18:34 30.26217 120.74831 4935 ft 274 kts 333°
2026-05-04 18:34 30.27922 120.73837 4811 ft 275 kts 333°
2026-05-04 18:34 30.29635 120.72847 4681 ft 274 kts 333°
2026-05-04 18:35 30.31336 120.71851 4555 ft 274 kts 332°
2026-05-04 18:35 30.33031 120.70855 4409 ft 272 kts 332°
2026-05-04 18:35 30.34590 120.69696 4177 ft 261 kts 313°
2026-05-04 18:35 30.35391 120.67924 3966 ft 246 kts 277°
2026-05-04 18:36 30.35216 120.66029 3802 ft 233 kts 252°
2026-05-04 18:36 30.34747 120.64273 3638 ft 224 kts 250°
2026-05-04 18:36 30.34272 120.62598 3488 ft 215 kts 250°
2026-05-04 18:36 30.33770 120.61013 3326 ft 204 kts 240°
2026-05-04 18:37 30.32880 120.59807 3183 ft 195 kts 226°
2026-05-04 18:37 30.32048 120.58556 3070 ft 197 kts 233°
2026-05-04 18:37 30.31293 120.57243 2822 ft 193 kts 236°
2026-05-04 18:37 30.30634 120.55954 2591 ft 179 kts 238°
2026-05-04 18:38 30.30063 120.54765 2484 ft 159 kts 238°
2026-05-04 18:38 30.29541 120.53650 2107 ft 159 kts 238°
2026-05-04 18:38 30.28998 120.52490 1581 ft 165 kts 238°
2026-05-04 18:38 30.28478 120.51374 1404 ft 150 kts 239°
2026-05-04 18:39 30.28054 120.50315 1177 ft 141 kts 243°
2026-05-04 18:39 30.27643 120.49311 940 ft 136 kts 239°
2026-05-04 18:39 30.27204 120.48356 765 ft 135 kts 239°
2026-05-04 18:39 30.26746 120.47405 622 ft 135 kts 239°
2026-05-04 18:40 30.26298 120.46380 452 ft 150 kts 245°
2026-05-04 18:40 30.25868 120.45348 361 ft 144 kts 244°
2026-05-04 18:40 30.25402 120.44353 201 ft 137 kts 239°
2026-05-04 18:40 30.24974 120.43469 520 ft 131 kts 242°
2026-05-04 18:41 30.24531 120.42449 1343 ft 148 kts 239°
2026-05-04 18:41 30.24195 120.41316 2146 ft 148 kts 256°
2026-05-04 18:41 30.24081 120.40125 2731 ft 154 kts 268°
2026-05-04 18:41 30.24431 120.38851 2965 ft 187 kts 303°
2026-05-04 18:42 30.25641 120.37993 2977 ft 228 kts 347°
2026-05-04 18:42 30.27265 120.38241 2967 ft 251 kts 24°
2026-05-04 18:42 30.28789 120.39391 2963 ft 270 kts 41°
2026-05-04 18:42 30.30172 120.40853 2978 ft 274 kts 45°
2026-05-04 18:43 30.31544 120.42366 2994 ft 273 kts 44°
2026-05-04 18:43 30.32967 120.43824 2994 ft 272 kts 41°
2026-05-04 18:43 30.34315 120.45363 2981 ft 272 kts 50°
2026-05-04 18:43 30.35521 120.47052 2665 ft 273 kts 52°
2026-05-04 18:44 30.36701 120.48766 2386 ft 267 kts 53°
2026-05-04 18:44 30.37087 120.49325 2324 ft 263 kts 53°
2026-05-04 18:44 30.38918 120.51984 2081 ft 245 kts 53°
2026-05-04 18:44 30.39858 120.53546 2023 ft 229 kts 65°
2026-05-04 18:45 30.40344 120.55200 2065 ft 206 kts 87°
2026-05-04 18:45 30.40171 120.56738 2094 ft 186 kts 116°
2026-05-04 18:45 30.39367 120.57822 2065 ft 178 kts 151°
2026-05-04 18:45 30.38202 120.58265 2058 ft 177 kts 171°
2026-05-04 18:46 30.36984 120.58512 2052 ft 178 kts 172°
2026-05-04 18:46 30.35765 120.58747 2051 ft 177 kts 172°
2026-05-04 18:46 30.34555 120.58984 2052 ft 177 kts 172°
2026-05-04 18:46 30.33338 120.59035 2040 ft 177 kts 196°
2026-05-04 18:47 30.32661 120.58522 2051 ft 179 kts 227°
2026-05-04 18:47 30.32127 120.57223 2078 ft 181 kts 249°
2026-05-04 18:47 30.31480 120.56010 2059 ft 178 kts 220°
2026-05-04 18:47 30.30617 120.54988 2048 ft 179 kts 230°
2026-05-04 18:48 30.29943 120.53748 2090 ft 184 kts 239°
2026-05-04 18:48 30.29272 120.52409 1709 ft 194 kts 235°
2026-05-04 18:48 30.28536 120.51152 1532 ft 180 kts 232°
2026-05-04 18:48 30.27840 120.49993 1198 ft 172 kts 235°
2026-05-04 18:49 30.27337 120.48814 997 ft 157 kts 243°
2026-05-04 18:49 30.26926 120.47690 798 ft 146 kts 242°
2026-05-04 18:49 30.26458 120.46680 572 ft 139 kts 236°
2026-05-04 18:49 30.25983 120.45740 387 ft 133 kts 242°
2026-05-04 18:50 30.25560 120.44778 241 ft 134 kts 242°
2026-05-04 18:50 30.25136 120.43799 64 ft 138 kts 242°
2026-05-04 18:50 30.24726 120.42887 38 ft 102 kts 243°
2026-05-04 18:50 30.24561 120.42506 36 ft 22 kts 242°
2026-05-04 18:51 30.24480 120.42348 37 ft 24 kts 230°
2026-05-04 18:51 30.24359 120.42219 38 ft 22 kts 216°
2026-05-04 18:51 30.24238 120.42126 39 ft 21 kts 205°
2026-05-04 18:51 30.24136 120.42147 39 ft 5 kts 153°
2026-05-04 18:52 30.24095 120.42166 39 ft 8 kts 159°
2026-05-04 18:52 30.24051 120.42208 39 ft 8 kts 113°
2026-05-04 18:52 30.24018 120.42262 39 ft 9 kts 136°
2026-05-04 18:52 30.23974 120.42311 38 ft 4 kts 136°
2026-05-04 18:53 30.23967 120.42318 39 ft 0 kts 137°